Time,TemperatureF,DewpointF,PressureIn,WindDirection,WindDirectionDegrees,WindSpeedMPH,WindSpeedGustMPH,Humidity,HourlyPrecipIn,Conditions,Clouds,dailyrainin,SoftwareType,DateUTC
2013-02-13 00:04:00,39.0,22.0,30.06,East,84,0.0,0.0,50,0.00,,---,0.00,VWS V14.00,2013-02-13 08:04:00,
2013-02-13 00:09:00,38.8,21.8,30.06,East,83,0.0,0.0,50,0.00,,---,0.00,VWS V14.00,2013-02-13 08:09:00,
2013-02-13 00:14:00,38.8,21.8,30.06,East,84,0.0,0.0,50,0.00,,---,0.00,VWS V14.00,2013-02-13 08:14:00,
2013-02-13 00:20:00,38.5,21.5,30.09,East,85,0.0,0.0,50,0.00,,---,0.00,VWS V14.00,2013-02-13 08:20:00,
2013-02-13 00:25:00,38.5,21.5,30.09,East,84,0.0,0.0,50,0.00,,---,0.00,VWS V14.00,2013-02-13 08:25:00,
2013-02-13 00:30:00,38.1,21.1,30.09,East,84,0.0,0.0,50,0.00,,---,0.00,VWS V14.00,2013-02-13 08:30:00,
2013-02-13 00:35:00,37.9,21.0,30.09,East,84,0.0,0.0,50,0.00,,---,0.00,VWS V14.00,2013-02-13 08:35:00,
2013-02-13 00:40:00,37.8,20.8,30.09,East,84,0.0,0.0,50,0.00,,---,0.00,VWS V14.00,2013-02-13 08:40:00,
2013-02-13 00:46:00,37.6,20.6,30.09,East,84,0.0,0.0,50,0.00,,---,0.00,VWS V14.00,2013-02-13 08:46:00,
2013-02-13 00:52:00,37.4,20.9,30.09,East,84,0.0,0.0,51,0.00,,---,0.00,VWS V14.00,2013-02-13 08:52:00,
2013-02-13 00:57:00,37.2,20.8,30.09,East,84,0.0,0.0,51,0.00,,---,0.00,VWS V14.00,2013-02-13 08:57:00,
2013-02-13 01:02:00,37.0,20.6,30.09,East,85,0.0,0.0,51,0.00,,---,0.00,VWS V14.00,2013-02-13 09:02:00,
2013-02-13 01:08:00,37.0,20.6,30.09,East,84,0.0,0.0,51,0.00,,---,0.00,VWS V14.00,2013-02-13 09:08:00,
2013-02-13 01:14:00,36.9,20.9,30.09,East,84,0.0,0.0,52,0.00,,---,0.00,VWS V14.00,2013-02-13 09:14:00,
2013-02-13 01:20:00,36.9,20.9,30.09,East,84,0.0,0.0,52,0.00,,---,0.00,VWS V14.00,2013-02-13 09:20:00,
2013-02-13 01:26:00,36.7,20.7,30.09,East,84,0.0,0.0,52,0.00,,---,0.00,VWS V14.00,2013-02-13 09:26:00,
2013-02-13 01:31:00,36.5,20.6,30.09,East,84,0.0,0.0,52,0.00,,---,0.00,VWS V14.00,2013-02-13 09:31:00,
2013-02-13 01:37:00,36.3,20.4,30.09,East,84,0.0,0.0,52,0.00,,---,0.00,VWS V14.00,2013-02-13 09:37:00,
2013-02-13 01:42:00,36.3,20.4,30.09,East,84,0.0,0.0,52,0.00,,---,0.00,VWS V14.00,2013-02-13 09:42:00,
2013-02-13 01:47:00,36.1,20.2,30.09,East,84,0.0,0.0,52,0.00,,---,0.00,VWS V14.00,2013-02-13 09:47:00,
2013-02-13 01:53:00,36.1,20.7,30.09,East,83,0.0,0.0,53,0.00,,---,0.00,VWS V14.00,2013-02-13 09:53:00,
2013-02-13 01:58:00,36.1,20.7,30.09,East,84,0.0,0.0,53,0.00,,---,0.00,VWS V14.00,2013-02-13 09:58:00,
2013-02-13 02:03:00,36.1,20.7,30.09,East,84,0.0,0.0,53,0.00,,---,0.00,VWS V14.00,2013-02-13 10:03:00,
2013-02-13 02:08:00,36.0,20.5,30.09,East,84,0.0,0.0,53,0.00,,---,0.00,VWS V14.00,2013-02-13 10:08:00,
2013-02-13 02:14:00,35.8,20.3,30.09,East,84,0.0,0.0,53,0.00,,---,0.00,VWS V14.00,2013-02-13 10:14:00,
2013-02-13 02:20:00,35.6,20.2,30.09,East,84,0.0,0.0,53,0.00,,---,0.00,VWS V14.00,2013-02-13 10:20:00,
2013-02-13 02:26:00,35.4,20.4,30.09,East,84,0.0,0.0,54,0.00,,---,0.00,VWS V14.00,2013-02-13 10:26:00,
2013-02-13 02:32:00,35.4,20.4,30.09,East,83,0.0,0.0,54,0.00,,---,0.00,VWS V14.00,2013-02-13 10:32:00,
2013-02-13 02:38:00,35.2,20.3,30.09,East,84,0.0,0.0,54,0.00,,---,0.00,VWS V14.00,2013-02-13 10:38:00,
2013-02-13 02:44:00,35.1,20.1,30.09,East,84,0.0,0.0,54,0.00,,---,0.00,VWS V14.00,2013-02-13 10:44:00,
2013-02-13 02:49:00,35.1,20.1,30.06,East,84,0.0,0.0,54,0.00,,---,0.00,VWS V14.00,2013-02-13 10:49:00,
2013-02-13 02:55:00,34.9,19.9,30.06,East,84,0.0,0.0,54,0.00,,---,0.00,VWS V14.00,2013-02-13 10:55:00,
2013-02-13 03:00:00,34.7,19.8,30.06,East,84,0.0,0.0,54,0.00,,---,0.00,VWS V14.00,2013-02-13 11:00:00,
2013-02-13 03:05:00,34.5,20.0,30.06,East,84,0.0,0.0,55,0.00,,---,0.00,VWS V14.00,2013-02-13 11:05:00,
2013-02-13 03:11:00,34.5,20.0,30.06,East,84,0.0,0.0,55,0.00,,---,0.00,VWS V14.00,2013-02-13 11:11:00,
2013-02-13 03:17:00,34.5,20.0,30.06,East,84,0.0,0.0,55,0.00,,---,0.00,VWS V14.00,2013-02-13 11:17:00,
2013-02-13 03:23:00,34.7,20.2,30.06,East,84,0.0,0.0,55,0.00,,---,0.00,VWS V14.00,2013-02-13 11:23:00,
2013-02-13 03:28:00,34.7,20.2,30.06,East,84,0.0,0.0,55,0.00,,---,0.00,VWS V14.00,2013-02-13 11:28:00,
2013-02-13 03:33:00,34.9,20.4,30.06,East,84,0.0,0.0,55,0.00,,---,0.00,VWS V14.00,2013-02-13 11:33:00,
2013-02-13 03:38:00,34.9,20.4,30.06,East,84,0.0,0.0,55,0.00,,---,0.00,VWS V14.00,2013-02-13 11:38:00,
2013-02-13 03:44:00,34.5,20.0,30.06,East,84,0.0,0.0,55,0.00,,---,0.00,VWS V14.00,2013-02-13 11:44:00,
2013-02-13 03:50:00,34.3,20.3,30.06,East,84,0.0,0.0,56,0.00,,---,0.00,VWS V14.00,2013-02-13 11:50:00,
2013-02-13 03:55:00,34.2,20.1,30.06,East,84,0.0,0.0,56,0.00,,---,0.00,VWS V14.00,2013-02-13 11:55:00,
2013-02-13 04:01:00,34.0,20.0,30.06,East,84,0.0,0.0,56,0.00,,---,0.00,VWS V14.00,2013-02-13 12:01:00,
2013-02-13 04:06:00,34.0,20.0,30.06,East,84,0.0,0.0,56,0.00,,---,0.00,VWS V14.00,2013-02-13 12:06:00,
2013-02-13 04:11:00,34.0,20.0,30.06,East,84,0.0,0.0,56,0.00,,---,0.00,VWS V14.00,2013-02-13 12:11:00,
2013-02-13 04:16:00,33.8,19.8,30.06,East,84,0.0,0.0,56,0.00,,---,0.00,VWS V14.00,2013-02-13 12:16:00,
2013-02-13 04:21:00,33.8,20.2,30.06,East,84,0.0,0.0,57,0.00,,---,0.00,VWS V14.00,2013-02-13 12:21:00,
2013-02-13 04:26:00,33.8,20.2,30.06,East,84,0.0,0.0,57,0.00,,---,0.00,VWS V14.00,2013-02-13 12:26:00,
2013-02-13 04:32:00,33.8,20.2,30.06,East,84,0.0,0.0,57,0.00,,---,0.00,VWS V14.00,2013-02-13 12:32:00,
2013-02-13 04:38:00,33.8,20.2,30.06,East,84,0.0,0.0,57,0.00,,---,0.00,VWS V14.00,2013-02-13 12:38:00,
2013-02-13 04:44:00,33.6,20.4,30.06,East,84,0.0,0.0,58,0.00,,---,0.00,VWS V14.00,2013-02-13 12:44:00,
2013-02-13 04:49:00,33.6,20.4,30.06,East,84,0.0,0.0,58,0.00,,---,0.00,VWS V14.00,2013-02-13 12:49:00,
2013-02-13 04:54:00,33.6,20.4,30.06,East,84,0.0,0.0,58,0.00,,---,0.00,VWS V14.00,2013-02-13 12:54:00,
2013-02-13 05:00:00,33.6,20.4,30.06,East,84,0.0,0.0,58,0.00,,---,0.00,VWS V14.00,2013-02-13 13:00:00,
2013-02-13 05:05:00,33.6,20.4,30.06,East,84,0.0,0.0,58,0.00,,---,0.00,VWS V14.00,2013-02-13 13:05:00,
2013-02-13 05:11:00,33.4,20.7,30.06,East,84,0.0,0.0,59,0.00,,---,0.00,VWS V14.00,2013-02-13 13:11:00,
2013-02-13 05:16:00,33.4,20.7,30.06,East,84,0.0,0.0,59,0.00,,---,0.00,VWS V14.00,2013-02-13 13:16:00,
2013-02-13 05:22:00,33.4,20.7,30.06,East,84,0.0,0.0,59,0.00,,---,0.00,VWS V14.00,2013-02-13 13:22:00,
2013-02-13 05:27:00,33.4,20.7,30.06,East,84,0.0,0.0,59,0.00,,---,0.00,VWS V14.00,2013-02-13 13:27:00,
2013-02-13 05:32:00,33.3,20.5,30.06,East,84,0.0,0.0,59,0.00,,---,0.00,VWS V14.00,2013-02-13 13:32:00,
2013-02-13 05:37:00,33.1,20.7,30.06,East,84,0.0,0.0,60,0.00,,---,0.00,VWS V14.00,2013-02-13 13:37:00,
2013-02-13 05:42:00,33.1,20.7,30.06,East,84,0.0,0.0,60,0.00,,---,0.00,VWS V14.00,2013-02-13 13:42:00,
2013-02-13 05:47:00,33.1,20.7,30.06,East,84,0.0,0.0,60,0.00,,---,0.00,VWS V14.00,2013-02-13 13:47:00,
2013-02-13 05:53:00,33.1,20.7,30.06,East,84,0.0,0.0,60,0.00,,---,0.00,VWS V14.00,2013-02-13 13:53:00,
2013-02-13 05:58:00,33.1,21.1,30.06,East,84,0.0,0.0,61,0.00,,---,0.00,VWS V14.00,2013-02-13 13:58:00,
2013-02-13 06:03:00,33.3,21.3,30.06,East,84,0.0,0.0,61,0.00,,---,0.00,VWS V14.00,2013-02-13 14:03:00,
2013-02-13 06:08:00,33.3,21.3,30.06,East,84,0.0,0.0,61,0.00,,---,0.00,VWS V14.00,2013-02-13 14:08:00,
2013-02-13 06:14:00,33.3,21.3,30.06,East,84,0.0,0.0,61,0.00,,---,0.00,VWS V14.00,2013-02-13 14:14:00,
2013-02-13 06:20:00,33.3,21.3,30.06,East,84,0.0,0.0,61,0.00,,---,0.00,VWS V14.00,2013-02-13 14:20:00,
2013-02-13 06:25:00,33.3,21.3,30.06,East,84,0.0,0.0,61,0.00,,---,0.00,VWS V14.00,2013-02-13 14:25:00,
2013-02-13 06:30:00,33.3,21.7,30.06,East,84,0.0,0.0,62,0.00,,---,0.00,VWS V14.00,2013-02-13 14:30:00,
2013-02-13 06:36:00,33.4,21.8,30.06,East,84,0.0,0.0,62,0.00,,---,0.00,VWS V14.00,2013-02-13 14:36:00,
2013-02-13 06:41:00,33.4,21.8,30.06,East,84,0.0,0.0,62,0.00,,---,0.00,VWS V14.00,2013-02-13 14:41:00,
2013-02-13 06:46:00,33.4,21.8,30.06,East,84,0.0,0.0,62,0.00,,---,0.00,VWS V14.00,2013-02-13 14:46:00,
2013-02-13 06:51:00,33.4,21.8,30.06,East,84,0.0,0.0,62,0.00,,---,0.00,VWS V14.00,2013-02-13 14:51:00,
2013-02-13 06:57:00,33.4,22.2,30.06,East,84,0.0,0.0,63,0.00,,---,0.00,VWS V14.00,2013-02-13 14:57:00,
2013-02-13 07:02:00,33.4,22.2,30.06,East,84,0.0,0.0,63,0.00,,---,0.00,VWS V14.00,2013-02-13 15:02:00,
2013-02-13 07:07:00,33.4,22.2,30.09,East,83,0.0,0.0,63,0.00,,---,0.00,VWS V14.00,2013-02-13 15:07:00,
2013-02-13 07:12:00,33.4,22.2,30.09,East,83,0.0,0.0,63,0.00,,---,0.00,VWS V14.00,2013-02-13 15:12:00,
2013-02-13 07:18:00,33.3,22.0,30.09,East,83,0.0,0.0,63,0.00,,---,0.00,VWS V14.00,2013-02-13 15:18:00,
2013-02-13 07:24:00,33.3,22.4,30.09,East,83,0.0,0.0,64,0.00,,---,0.00,VWS V14.00,2013-02-13 15:24:00,
2013-02-13 07:29:00,33.3,22.4,30.09,East,83,0.0,0.0,64,0.00,,---,0.00,VWS V14.00,2013-02-13 15:29:00,
2013-02-13 07:34:00,33.4,22.6,30.09,East,83,0.0,0.0,64,0.00,,---,0.00,VWS V14.00,2013-02-13 15:34:00,
2013-02-13 07:39:00,33.6,23.1,30.09,East,83,0.0,0.0,65,0.00,,---,0.00,VWS V14.00,2013-02-13 15:39:00,
2013-02-13 07:45:00,34.0,23.1,30.09,East,83,0.0,0.0,64,0.00,,---,0.00,VWS V14.00,2013-02-13 15:45:00,
2013-02-13 07:50:00,34.5,24.0,30.09,East,83,0.0,0.0,65,0.00,,---,0.00,VWS V14.00,2013-02-13 15:50:00,
2013-02-13 07:56:00,35.2,25.0,30.09,East,83,0.0,0.0,66,0.00,,---,0.00,VWS V14.00,2013-02-13 15:56:00,
2013-02-13 08:02:00,35.8,25.2,30.09,East,83,0.0,0.0,65,0.00,,---,0.00,VWS V14.00,2013-02-13 16:02:00,
2013-02-13 08:07:00,36.3,26.1,30.09,East,82,0.0,0.0,66,0.00,,---,0.00,VWS V14.00,2013-02-13 16:07:00,
2013-02-13 08:12:00,37.0,27.1,30.09,East,82,0.0,0.0,67,0.00,,---,0.00,VWS V14.00,2013-02-13 16:12:00,
2013-02-13 08:18:00,37.9,28.0,30.09,East,82,0.0,0.0,67,0.00,,---,0.00,VWS V14.00,2013-02-13 16:18:00,
2013-02-13 08:24:00,39.4,29.7,30.09,East,82,0.0,0.0,68,0.00,,---,0.00,VWS V14.00,2013-02-13 16:24:00,
2013-02-13 08:30:00,40.6,30.9,30.09,East,82,0.0,0.0,68,0.00,,---,0.00,VWS V14.00,2013-02-13 16:30:00,
2013-02-13 08:35:00,42.3,32.5,30.09,East,82,0.0,0.0,68,0.00,,---,0.00,VWS V14.00,2013-02-13 16:35:00,
2013-02-13 08:40:00,43.0,32.4,30.09,SE,126,0.0,0.0,66,0.00,,---,0.00,VWS V14.00,2013-02-13 16:40:00,
2013-02-13 08:45:00,43.5,32.9,30.09,ESE,117,0.0,0.0,66,0.00,,---,0.00,VWS V14.00,2013-02-13 16:45:00,
2013-02-13 08:51:00,44.1,33.4,30.09,East,95,3.1,3.1,66,0.00,,---,0.00,VWS V14.00,2013-02-13 16:51:00,
2013-02-13 08:57:00,44.6,34.3,30.09,ESE,111,2.7,2.7,67,0.00,,---,0.00,VWS V14.00,2013-02-13 16:57:00,
2013-02-13 09:02:00,45.1,34.5,30.09,SE,131,3.1,3.6,66,0.00,,---,0.00,VWS V14.00,2013-02-13 17:02:00,
2013-02-13 09:07:00,45.9,35.2,30.09,ESE,118,2.2,3.1,66,0.00,,---,0.00,VWS V14.00,2013-02-13 17:07:00,
2013-02-13 09:12:00,46.6,35.5,30.09,ESE,111,3.1,3.1,65,0.00,,---,0.00,VWS V14.00,2013-02-13 17:12:00,
2013-02-13 09:18:00,47.3,35.8,30.09,East,95,0.0,0.0,64,0.00,,---,0.00,VWS V14.00,2013-02-13 17:18:00,
2013-02-13 09:24:00,47.8,35.9,30.09,South,191,0.0,0.0,63,0.00,,---,0.00,VWS V14.00,2013-02-13 17:24:00,
2013-02-13 09:30:00,48.2,35.4,30.09,SSW,192,0.0,0.0,61,0.00,,---,0.00,VWS V14.00,2013-02-13 17:30:00,
2013-02-13 09:35:00,48.2,35.4,30.09,SSW,193,0.0,0.0,61,0.00,,---,0.00,VWS V14.00,2013-02-13 17:35:00,
2013-02-13 09:41:00,48.6,34.9,30.09,WSW,247,0.0,0.0,59,0.00,,---,0.00,VWS V14.00,2013-02-13 17:41:00,
2013-02-13 09:46:00,48.7,34.6,30.09,WSW,251,0.0,2.2,58,0.00,,---,0.00,VWS V14.00,2013-02-13 17:46:00,
2013-02-13 09:51:00,49.3,33.4,30.09,SSW,200,2.7,2.7,54,0.00,,---,0.00,VWS V14.00,2013-02-13 17:51:00,
2013-02-13 09:57:00,49.8,33.4,30.09,South,178,0.0,0.0,53,0.00,,---,0.00,VWS V14.00,2013-02-13 17:57:00,
2013-02-13 10:02:00,50.5,33.1,30.09,SSE,162,3.1,3.1,51,0.00,,---,0.00,VWS V14.00,2013-02-13 18:02:00,
2013-02-13 10:08:00,51.3,32.8,30.09,SSW,205,2.2,4.0,49,0.00,,---,0.00,VWS V14.00,2013-02-13 18:08:00,
2013-02-13 10:13:00,51.8,33.3,30.09,NW,305,0.0,0.0,49,0.00,,---,0.00,VWS V14.00,2013-02-13 18:13:00,
2013-02-13 10:18:00,52.5,33.9,30.09,WNW,293,0.0,0.0,49,0.00,,---,0.00,VWS V14.00,2013-02-13 18:18:00,
2013-02-13 10:23:00,53.2,33.5,30.09,SSW,195,3.6,3.6,47,0.00,,---,0.00,VWS V14.00,2013-02-13 18:23:00,
2013-02-13 10:29:00,54.0,33.1,30.09,WNW,284,2.2,3.1,45,0.00,,---,0.00,VWS V14.00,2013-02-13 18:29:00,
2013-02-13 10:34:00,54.5,33.6,30.09,East,90,0.0,0.0,45,0.00,,---,0.00,VWS V14.00,2013-02-13 18:34:00,
2013-02-13 10:39:00,55.8,34.2,30.09,NW,315,0.0,0.0,44,0.00,,---,0.00,VWS V14.00,2013-02-13 18:39:00,
2013-02-13 10:44:00,56.7,33.8,30.09,WSW,256,0.0,2.2,42,0.00,,---,0.00,VWS V14.00,2013-02-13 18:44:00,
2013-02-13 10:50:00,57.2,33.1,30.09,NNE,12,0.0,2.7,40,0.00,,---,0.00,VWS V14.00,2013-02-13 18:50:00,
2013-02-13 10:56:00,58.3,34.1,30.09,East,98,0.0,2.7,40,0.00,,---,0.00,VWS V14.00,2013-02-13 18:56:00,
2013-02-13 11:02:00,59.0,33.5,30.09,West,263,2.7,2.7,38,0.00,,---,0.00,VWS V14.00,2013-02-13 19:02:00,
2013-02-13 11:07:00,59.7,33.4,30.09,SSW,200,0.0,0.0,37,0.00,,---,0.00,VWS V14.00,2013-02-13 19:07:00,
2013-02-13 11:12:00,59.7,32.7,30.09,SE,138,3.1,3.1,36,0.00,,---,0.00,VWS V14.00,2013-02-13 19:12:00,
2013-02-13 11:18:00,59.5,31.9,30.09,SSE,162,0.0,3.1,35,0.00,,---,0.00,VWS V14.00,2013-02-13 19:18:00,
2013-02-13 11:23:00,59.9,31.5,30.09,SW,226,2.2,2.2,34,0.00,,---,0.00,VWS V14.00,2013-02-13 19:23:00,
2013-02-13 11:28:00,60.3,31.8,30.09,SSE,157,3.6,3.6,34,0.00,,---,0.00,VWS V14.00,2013-02-13 19:28:00,
2013-02-13 11:33:00,60.1,28.6,30.09,West,268,3.6,4.0,30,0.00,,---,0.00,VWS V14.00,2013-02-13 19:33:00,
2013-02-13 11:39:00,59.7,29.1,30.09,West,274,0.0,0.0,31,0.00,,---,0.00,VWS V14.00,2013-02-13 19:39:00,
2013-02-13 11:44:00,59.9,27.6,30.09,WNW,287,0.0,3.1,29,0.00,,---,0.00,VWS V14.00,2013-02-13 19:44:00,
2013-02-13 11:50:00,60.1,27.7,30.09,NNW,343,3.6,3.6,29,0.00,,---,0.00,VWS V14.00,2013-02-13 19:50:00,
2013-02-13 11:55:00,60.1,27.7,30.09,North,357,3.6,4.0,29,0.00,,---,0.00,VWS V14.00,2013-02-13 19:55:00,
2013-02-13 12:01:00,60.3,27.9,30.09,NW,322,0.0,0.0,29,0.00,,---,0.00,VWS V14.00,2013-02-13 20:01:00,
2013-02-13 12:06:00,60.6,27.4,30.06,WNW,303,3.1,3.1,28,0.00,,---,0.00,VWS V14.00,2013-02-13 20:06:00,
2013-02-13 12:12:00,60.8,26.6,30.06,SSW,206,4.9,4.9,27,0.00,,---,0.00,VWS V14.00,2013-02-13 20:12:00,
2013-02-13 12:18:00,61.0,26.8,30.06,SE,146,4.0,4.0,27,0.00,,---,0.00,VWS V14.00,2013-02-13 20:18:00,
2013-02-13 12:23:00,61.9,27.6,30.06,South,174,0.0,0.0,27,0.00,,---,0.00,VWS V14.00,2013-02-13 20:23:00,
2013-02-13 12:28:00,62.2,27.9,30.06,SW,222,0.0,0.0,27,0.00,,---,0.00,VWS V14.00,2013-02-13 20:28:00,
2013-02-13 12:34:00,62.2,27.0,30.06,SSE,160,0.0,0.0,26,0.00,,---,0.00,VWS V14.00,2013-02-13 20:34:00,
2013-02-13 12:39:00,62.4,27.1,30.06,NW,311,3.1,3.1,26,0.00,,---,0.00,VWS V14.00,2013-02-13 20:39:00,
2013-02-13 12:44:00,62.6,26.3,30.06,West,264,3.1,7.2,25,0.00,,---,0.00,VWS V14.00,2013-02-13 20:44:00,
2013-02-13 12:49:00,62.8,26.5,30.06,WSW,243,6.7,6.7,25,0.00,,---,0.00,VWS V14.00,2013-02-13 20:49:00,
2013-02-13 12:55:00,62.8,26.5,30.06,NW,309,3.1,3.6,25,0.00,,---,0.00,VWS V14.00,2013-02-13 20:55:00,
2013-02-13 13:01:00,63.0,26.6,30.06,South,178,2.7,2.7,25,0.00,,---,0.00,VWS V14.00,2013-02-13 21:01:00,
2013-02-13 13:07:00,63.3,26.9,30.03,NNE,25,2.2,2.2,25,0.00,,---,0.00,VWS V14.00,2013-02-13 21:07:00,
2013-02-13 13:12:00,63.9,27.4,30.03,ESE,106,5.4,5.4,25,0.00,,---,0.00,VWS V14.00,2013-02-13 21:12:00,
2013-02-13 13:18:00,64.2,27.7,30.03,North,9,2.7,2.7,25,0.00,,---,0.00,VWS V14.00,2013-02-13 21:18:00,
2013-02-13 13:24:00,64.0,27.5,30.03,ENE,59,2.2,4.0,25,0.00,,---,0.00,VWS V14.00,2013-02-13 21:24:00,
2013-02-13 13:29:00,64.2,26.7,30.03,SSE,154,2.7,2.7,24,0.00,,---,0.00,VWS V14.00,2013-02-13 21:29:00,
2013-02-13 13:34:00,64.4,26.9,30.03,SSW,210,4.0,5.8,24,0.00,,---,0.00,VWS V14.00,2013-02-13 21:34:00,
2013-02-13 13:40:00,64.6,27.0,30.03,ESE,114,2.7,2.7,24,0.00,,---,0.00,VWS V14.00,2013-02-13 21:40:00,
2013-02-13 13:46:00,64.8,27.2,30.03,South,190,2.7,4.0,24,0.00,,---,0.00,VWS V14.00,2013-02-13 21:46:00,
2013-02-13 13:51:00,65.1,27.5,30.03,WNW,284,2.2,2.2,24,0.00,,---,0.00,VWS V14.00,2013-02-13 21:51:00,
2013-02-13 13:57:00,64.9,26.3,30.03,SSE,164,4.9,5.4,23,0.00,,---,0.00,VWS V14.00,2013-02-13 21:57:00,
2013-02-13 14:03:00,64.4,25.8,30.00,ESE,122,4.9,4.9,23,0.00,,---,0.00,VWS V14.00,2013-02-13 22:03:00,
2013-02-13 14:08:00,65.1,26.4,30.00,SSE,158,6.3,6.3,23,0.00,,---,0.00,VWS V14.00,2013-02-13 22:08:00,
2013-02-13 14:13:00,64.9,26.3,30.00,SSW,196,2.7,3.6,23,0.00,,---,0.00,VWS V14.00,2013-02-13 22:13:00,
2013-02-13 14:18:00,65.5,26.7,30.00,SSE,151,2.2,2.7,23,0.00,,---,0.00,VWS V14.00,2013-02-13 22:18:00,
2013-02-13 14:24:00,65.1,26.4,30.00,North,353,0.0,0.0,23,0.00,,---,0.00,VWS V14.00,2013-02-13 22:24:00,
2013-02-13 14:29:00,65.1,26.4,30.00,ENE,71,2.7,2.7,23,0.00,,---,0.00,VWS V14.00,2013-02-13 22:29:00,
2013-02-13 14:34:00,65.3,26.6,30.00,SW,221,3.6,5.8,23,0.00,,---,0.00,VWS V14.00,2013-02-13 22:34:00,
2013-02-13 14:39:00,65.3,26.6,30.00,SSE,162,3.6,4.0,23,0.00,,---,0.00,VWS V14.00,2013-02-13 22:39:00,
2013-02-13 14:44:00,65.1,26.4,30.00,SSW,194,3.6,3.6,23,0.00,,---,0.00,VWS V14.00,2013-02-13 22:44:00,
2013-02-13 14:49:00,64.8,26.1,30.00,ESE,117,5.4,5.4,23,0.00,,---,0.00,VWS V14.00,2013-02-13 22:49:00,
2013-02-13 14:55:00,64.8,26.1,30.00,ESE,102,0.0,0.0,23,0.00,,---,0.00,VWS V14.00,2013-02-13 22:55:00,
2013-02-13 15:00:00,64.4,25.8,30.00,ESE,120,0.0,0.0,23,0.00,,---,0.00,VWS V14.00,2013-02-13 23:00:00,
2013-02-13 15:06:00,65.1,26.4,30.00,SSW,206,5.8,5.8,23,0.00,,---,0.00,VWS V14.00,2013-02-13 23:06:00,
2013-02-13 15:11:00,65.5,26.7,30.00,South,182,2.7,4.9,23,0.00,,---,0.00,VWS V14.00,2013-02-13 23:11:00,
2013-02-13 15:16:00,65.5,26.7,30.00,South,170,2.2,2.2,23,0.00,,---,0.00,VWS V14.00,2013-02-13 23:16:00,
2013-02-13 15:21:00,65.5,26.7,29.97,SW,230,3.6,3.6,23,0.00,,---,0.00,VWS V14.00,2013-02-13 23:21:00,
2013-02-13 15:27:00,64.9,26.3,29.97,SW,219,4.0,4.0,23,0.00,,---,0.00,VWS V14.00,2013-02-13 23:27:00,
2013-02-13 15:32:00,64.6,26.0,30.00,SSW,210,3.6,3.6,23,0.00,,---,0.00,VWS V14.00,2013-02-13 23:32:00,
2013-02-13 15:37:00,64.4,25.8,30.00,SE,135,5.8,5.8,23,0.00,,---,0.00,VWS V14.00,2013-02-13 23:37:00,
2013-02-13 15:43:00,64.4,25.8,30.00,ENE,66,5.4,5.4,23,0.00,,---,0.00,VWS V14.00,2013-02-13 23:43:00,
2013-02-13 15:48:00,64.4,25.8,30.00,ESE,111,2.2,2.2,23,0.00,,---,0.00,VWS V14.00,2013-02-13 23:48:00,
2013-02-13 15:53:00,64.6,26.0,30.00,SSW,202,6.3,6.3,23,0.00,,---,0.00,VWS V14.00,2013-02-13 23:53:00,
2013-02-13 15:58:00,64.4,25.8,30.00,ESE,121,3.1,4.0,23,0.00,,---,0.00,VWS V14.00,2013-02-13 23:58:00,
2013-02-13 16:03:00,64.2,26.7,30.00,SE,125,3.6,4.0,24,0.00,,---,0.00,VWS V14.00,2013-02-14 00:03:00,
2013-02-13 16:09:00,64.0,26.5,29.97,ESE,109,3.6,3.6,24,0.00,,---,0.00,VWS V14.00,2013-02-14 00:09:00,
2013-02-13 16:14:00,63.9,26.4,29.97,SE,125,4.9,5.4,24,0.00,,---,0.00,VWS V14.00,2013-02-14 00:14:00,
2013-02-13 16:19:00,63.7,26.2,29.97,SE,142,3.6,3.6,24,0.00,,---,0.00,VWS V14.00,2013-02-14 00:19:00,
2013-02-13 16:25:00,63.5,26.1,29.97,South,189,4.0,4.0,24,0.00,,---,0.00,VWS V14.00,2013-02-14 00:25:00,
2013-02-13 16:31:00,63.3,25.9,29.97,SE,131,2.7,2.7,24,0.00,,---,0.00,VWS V14.00,2013-02-14 00:31:00,
2013-02-13 16:37:00,63.0,25.6,29.97,ESE,122,4.0,4.0,24,0.00,,---,0.00,VWS V14.00,2013-02-14 00:37:00,
2013-02-13 16:42:00,62.4,25.2,29.97,East,87,2.2,2.2,24,0.00,,---,0.00,VWS V14.00,2013-02-14 00:42:00,
2013-02-13 16:47:00,62.2,25.0,29.97,SSE,159,3.1,3.1,24,0.00,,---,0.00,VWS V14.00,2013-02-14 00:47:00,
2013-02-13 16:53:00,62.1,24.9,29.97,SE,126,2.7,2.7,24,0.00,,---,0.00,VWS V14.00,2013-02-14 00:53:00,
2013-02-13 16:58:00,61.9,24.7,29.97,East,88,2.7,4.0,24,0.00,,---,0.00,VWS V14.00,2013-02-14 00:58:00,
2013-02-13 17:03:00,61.3,24.3,29.97,SE,131,3.1,3.6,24,0.00,,---,0.00,VWS V14.00,2013-02-14 01:03:00,
2013-02-13 17:08:00,61.0,24.0,29.97,SE,132,3.6,3.6,24,0.00,,---,0.00,VWS V14.00,2013-02-14 01:08:00,
2013-02-13 17:14:00,60.3,24.3,29.97,ESE,115,0.0,3.1,25,0.00,,---,0.00,VWS V14.00,2013-02-14 01:14:00,
2013-02-13 17:20:00,59.7,23.9,29.97,East,90,0.0,0.0,25,0.00,,---,0.00,VWS V14.00,2013-02-14 01:20:00,
2013-02-13 17:26:00,59.4,23.6,29.97,East,96,0.0,0.0,25,0.00,,---,0.00,VWS V14.00,2013-02-14 01:26:00,
2013-02-13 17:32:00,58.8,23.1,29.97,ESE,109,2.2,2.2,25,0.00,,---,0.00,VWS V14.00,2013-02-14 01:32:00,
2013-02-13 17:38:00,58.3,22.6,29.97,ESE,110,2.2,2.7,25,0.00,,---,0.00,VWS V14.00,2013-02-14 01:38:00,
2013-02-13 17:44:00,57.2,21.7,29.97,ESE,117,0.0,0.0,25,0.00,,---,0.00,VWS V14.00,2013-02-14 01:44:00,
2013-02-13 17:50:00,56.5,22.0,29.97,ESE,103,0.0,0.0,26,0.00,,---,0.00,VWS V14.00,2013-02-14 01:50:00,
2013-02-13 17:55:00,56.3,21.9,29.97,ESE,102,0.0,0.0,26,0.00,,---,0.00,VWS V14.00,2013-02-14 01:55:00,
2013-02-13 18:00:00,55.6,21.3,29.97,ESE,102,0.0,0.0,26,0.00,,---,0.00,VWS V14.00,2013-02-14 02:00:00,
2013-02-13 18:05:00,55.4,22.0,29.97,ESE,102,0.0,0.0,27,0.00,,---,0.00,VWS V14.00,2013-02-14 02:05:00,
2013-02-13 18:11:00,54.1,21.8,29.97,ESE,102,0.0,0.0,28,0.00,,---,0.00,VWS V14.00,2013-02-14 02:11:00,
2013-02-13 18:16:00,53.8,21.5,29.97,ESE,102,0.0,0.0,28,0.00,,---,0.00,VWS V14.00,2013-02-14 02:16:00,
2013-02-13 18:22:00,53.2,21.8,29.97,ESE,102,0.0,0.0,29,0.00,,---,0.00,VWS V14.00,2013-02-14 02:22:00,
2013-02-13 18:27:00,52.7,21.4,29.97,East,91,0.0,0.0,29,0.00,,---,0.00,VWS V14.00,2013-02-14 02:27:00,
2013-02-13 18:32:00,52.5,21.2,29.97,East,91,0.0,0.0,29,0.00,,---,0.00,VWS V14.00,2013-02-14 02:32:00,
2013-02-13 18:37:00,52.2,21.7,29.97,East,91,0.0,0.0,30,0.00,,---,0.00,VWS V14.00,2013-02-14 02:37:00,
2013-02-13 18:43:00,51.4,21.8,29.97,East,91,0.0,0.0,31,0.00,,---,0.00,VWS V14.00,2013-02-14 02:43:00,
2013-02-13 18:48:00,51.3,22.4,29.97,East,91,0.0,0.0,32,0.00,,---,0.00,VWS V14.00,2013-02-14 02:48:00,
2013-02-13 18:53:00,51.3,22.4,29.97,East,91,0.0,0.0,32,0.00,,---,0.00,VWS V14.00,2013-02-14 02:53:00,
2013-02-13 18:58:00,49.8,22.6,29.97,East,91,0.0,0.0,34,0.00,,---,0.00,VWS V14.00,2013-02-14 02:58:00,
2013-02-13 19:04:00,49.6,23.1,29.97,East,81,0.0,0.0,35,0.00,,---,0.00,VWS V14.00,2013-02-14 03:04:00,
2013-02-13 19:09:00,49.6,23.1,29.97,East,81,0.0,0.0,35,0.00,,---,0.00,VWS V14.00,2013-02-14 03:09:00,
2013-02-13 19:14:00,49.5,23.6,29.97,East,81,0.0,0.0,36,0.00,,---,0.00,VWS V14.00,2013-02-14 03:14:00,
2013-02-13 19:20:00,49.1,24.0,29.97,East,81,0.0,0.0,37,0.00,,---,0.00,VWS V14.00,2013-02-14 03:20:00,
2013-02-13 19:25:00,48.9,23.8,29.97,East,81,0.0,0.0,37,0.00,,---,0.00,VWS V14.00,2013-02-14 03:25:00,
2013-02-13 19:30:00,48.9,23.8,29.97,East,81,0.0,0.0,37,0.00,,---,0.00,VWS V14.00,2013-02-14 03:30:00,
2013-02-13 19:35:00,48.9,23.8,29.97,East,81,0.0,0.0,37,0.00,,---,0.00,VWS V14.00,2013-02-14 03:35:00,
2013-02-13 19:40:00,48.6,23.5,29.97,East,81,0.0,0.0,37,0.00,,---,0.00,VWS V14.00,2013-02-14 03:40:00,
2013-02-13 19:46:00,48.0,23.6,29.97,East,81,0.0,0.0,38,0.00,,---,0.00,VWS V14.00,2013-02-14 03:46:00,
2013-02-13 19:51:00,47.5,23.2,29.97,East,81,0.0,0.0,38,0.00,,---,0.00,VWS V14.00,2013-02-14 03:51:00,
2013-02-13 19:57:00,46.9,22.7,29.97,East,81,0.0,0.0,38,0.00,,---,0.00,VWS V14.00,2013-02-14 03:57:00,
2013-02-13 20:02:00,46.8,22.5,29.97,East,81,0.0,0.0,38,0.00,,---,0.00,VWS V14.00,2013-02-14 04:02:00,
2013-02-13 20:08:00,46.4,22.2,29.97,East,80,0.0,0.0,38,0.00,,---,0.00,VWS V14.00,2013-02-14 04:08:00,
2013-02-13 20:13:00,46.0,22.5,29.97,East,81,0.0,0.0,39,0.00,,---,0.00,VWS V14.00,2013-02-14 04:13:00,
2013-02-13 20:19:00,46.0,22.5,29.97,East,81,0.0,0.0,39,0.00,,---,0.00,VWS V14.00,2013-02-14 04:19:00,
2013-02-13 20:25:00,46.0,23.1,29.97,East,81,0.0,0.0,40,0.00,,---,0.00,VWS V14.00,2013-02-14 04:25:00,
2013-02-13 20:30:00,45.9,22.9,29.97,East,81,0.0,0.0,40,0.00,,---,0.00,VWS V14.00,2013-02-14 04:30:00,
2013-02-13 20:36:00,45.3,22.4,29.97,East,81,0.0,0.0,40,0.00,,---,0.00,VWS V14.00,2013-02-14 04:36:00,
2013-02-13 20:42:00,45.3,22.4,29.97,East,81,0.0,0.0,40,0.00,,---,0.00,VWS V14.00,2013-02-14 04:42:00,
2013-02-13 20:47:00,45.0,22.7,29.97,East,81,0.0,0.0,41,0.00,,---,0.00,VWS V14.00,2013-02-14 04:47:00,
2013-02-13 20:52:00,44.6,22.4,29.97,East,81,0.0,0.0,41,0.00,,---,0.00,VWS V14.00,2013-02-14 04:52:00,
2013-02-13 20:57:00,44.6,22.4,29.97,East,81,0.0,0.0,41,0.00,,---,0.00,VWS V14.00,2013-02-14 04:57:00,
2013-02-13 21:00:00,44.4,22.8,29.97,East,81,0.0,0.0,42,0.00,,---,0.00,VWS V14.00,2013-02-14 05:00:00,
2013-02-13 21:01:00,44.4,22.8,29.97,East,81,0.0,0.0,42,0.00,,---,0.00,VWS V14.00,2013-02-14 05:01:00,
2013-02-13 21:07:00,44.4,22.8,29.97,East,81,0.0,0.0,42,0.00,,---,0.00,VWS V14.00,2013-02-14 05:07:00,
2013-02-13 21:09:00,44.2,23.2,29.97,East,81,0.0,0.0,43,0.00,,---,0.00,VWS V14.00,2013-02-14 05:09:00,
2013-02-13 21:15:00,44.2,23.2,29.97,East,81,0.0,0.0,43,0.00,,---,0.00,VWS V14.00,2013-02-14 05:15:00,
2013-02-13 21:21:00,43.7,22.7,29.97,East,81,0.0,0.0,43,0.00,,---,0.00,VWS V14.00,2013-02-14 05:21:00,
2013-02-13 21:26:00,43.5,23.1,29.97,East,81,0.0,0.0,44,0.00,,---,0.00,VWS V14.00,2013-02-14 05:26:00,
2013-02-13 21:32:00,43.5,23.1,29.97,East,81,0.0,0.0,44,0.00,,---,0.00,VWS V14.00,2013-02-14 05:32:00,
2013-02-13 21:37:00,43.5,23.1,29.97,East,81,0.0,0.0,44,0.00,,---,0.00,VWS V14.00,2013-02-14 05:37:00,
2013-02-13 21:42:00,43.3,23.4,29.97,East,81,0.0,0.0,45,0.00,,---,0.00,VWS V14.00,2013-02-14 05:42:00,
2013-02-13 21:48:00,43.3,23.4,29.97,East,81,0.0,0.0,45,0.00,,---,0.00,VWS V14.00,2013-02-14 05:48:00,
2013-02-13 21:53:00,43.3,24.0,29.97,East,81,0.0,0.0,46,0.00,,---,0.00,VWS V14.00,2013-02-14 05:53:00,
2013-02-13 21:58:00,43.3,24.0,29.97,East,81,0.0,0.0,46,0.00,,---,0.00,VWS V14.00,2013-02-14 05:58:00,
2013-02-13 22:03:00,43.0,23.6,29.97,East,81,0.0,0.0,46,0.00,,---,0.00,VWS V14.00,2013-02-14 06:03:00,
2013-02-13 22:08:00,43.0,24.1,29.97,East,81,0.0,0.0,47,0.00,,---,0.00,VWS V14.00,2013-02-14 06:08:00,
2013-02-13 22:14:00,43.0,24.1,29.97,East,81,0.0,0.0,47,0.00,,---,0.00,VWS V14.00,2013-02-14 06:14:00,
2013-02-13 22:19:00,42.8,24.0,29.97,East,81,0.0,0.0,47,0.00,,---,0.00,VWS V14.00,2013-02-14 06:19:00,
2013-02-13 22:24:00,42.4,24.1,29.97,East,81,0.0,0.0,48,0.00,,---,0.00,VWS V14.00,2013-02-14 06:24:00,
2013-02-13 22:30:00,42.3,24.0,29.97,East,81,0.0,0.0,48,0.00,,---,0.00,VWS V14.00,2013-02-14 06:30:00,
2013-02-13 22:35:00,42.1,23.8,29.97,East,81,0.0,0.0,48,0.00,,---,0.00,VWS V14.00,2013-02-14 06:35:00,
2013-02-13 22:40:00,42.1,23.8,29.97,East,81,0.0,0.0,48,0.00,,---,0.00,VWS V14.00,2013-02-14 06:40:00,
2013-02-13 22:45:00,41.9,24.1,29.97,East,81,0.0,0.0,49,0.00,,---,0.00,VWS V14.00,2013-02-14 06:45:00,
2013-02-13 22:50:00,41.7,24.0,30.00,East,81,0.0,0.0,49,0.00,,---,0.00,VWS V14.00,2013-02-14 06:50:00,
2013-02-13 22:56:00,41.7,24.0,30.00,East,81,0.0,0.0,49,0.00,,---,0.00,VWS V14.00,2013-02-14 06:56:00,
2013-02-13 23:01:00,41.7,24.0,30.00,East,81,0.0,0.0,49,0.00,,---,0.00,VWS V14.00,2013-02-14 07:01:00,
2013-02-13 23:06:00,41.7,24.0,30.00,East,81,0.0,0.0,49,0.00,,---,0.00,VWS V14.00,2013-02-14 07:06:00,
2013-02-13 23:12:00,41.4,23.6,30.00,East,81,0.0,0.0,49,0.00,,---,0.00,VWS V14.00,2013-02-14 07:12:00,
2013-02-13 23:17:00,41.2,23.5,30.00,East,81,0.0,0.0,49,0.00,,---,0.00,VWS V14.00,2013-02-14 07:17:00,
2013-02-13 23:23:00,41.0,23.8,30.00,East,81,0.0,0.0,50,0.00,,---,0.00,VWS V14.00,2013-02-14 07:23:00,
2013-02-13 23:28:00,40.6,23.5,30.00,East,81,0.0,0.0,50,0.00,,---,0.00,VWS V14.00,2013-02-14 07:28:00,
2013-02-13 23:33:00,40.6,23.5,30.00,East,81,0.0,0.0,50,0.00,,---,0.00,VWS V14.00,2013-02-14 07:33:00,
2013-02-13 23:39:00,40.5,23.8,30.00,East,81,0.0,0.0,51,0.00,,---,0.00,VWS V14.00,2013-02-14 07:39:00,
2013-02-13 23:44:00,40.5,23.8,30.00,East,81,0.0,0.0,51,0.00,,---,0.00,VWS V14.00,2013-02-14 07:44:00,
2013-02-13 23:49:00,40.3,23.6,30.00,East,81,0.0,0.0,51,0.00,,---,0.00,VWS V14.00,2013-02-14 07:49:00,
2013-02-13 23:54:00,39.9,23.3,30.00,East,81,0.0,0.0,51,0.00,,---,0.00,VWS V14.00,2013-02-14 07:54:00,